EW7659 Weather Reports


Display with metric or nautical units.
time (UTC)temp
F
wind
direction
speed
MPH
gust
MPH
rain 1hr
in
rain 24hr
in
rain mn
in
humidity
%
barometer
mb
20200402105606 58 178 8.0 18.0 0.00 0.00 0.00 72 1005.1
20200402105105 58 157 9.0 19.0 0.00 0.00 0.00 72 1005.0
20200402104606 58 144 9.0 19.0 0.00 0.00 0.00 72 1005.0
20200402104106 58 228 8.0 17.0 0.00 0.00 0.00 72 1005.0
20200402103606 58 200 8.0 17.0 0.00 0.00 0.00 72 1005.0
20200402103106 58 140 7.0 17.0 0.00 0.00 0.00 72 1005.0
20200402102605 58 122 7.0 18.0 0.00 0.00 0.00 73 1005.1
20200402102106 58 173 8.0 18.0 0.00 0.00 0.00 73 1005.1
20200402101609 58 151 7.0 15.0 0.00 0.00 0.00 73 1005.1
20200402101104 58 177 7.0 15.0 0.00 0.00 0.00 73 1005.1
20200402100604 58 133 6.0 11.0 0.00 0.00 0.00 73 1005.3
20200402100104 58 149 6.0 13.0 0.00 0.00 0.00 73 1005.4
20200402095604 58 178 6.0 15.0 0.00 0.00 0.00 73 1005.5
20200402095104 58 204 6.0 15.0 0.00 0.00 0.00 74 1005.4
20200402094605 57 147 6.0 13.0 0.00 0.00 0.00 74 1005.5
20200402094104 57 150 5.0 12.0 0.00 0.00 0.00 74 1005.5
20200402093604 57 178 4.0 9.0 0.00 0.00 0.00 74 1005.6
20200402093104 57 161 4.0 10.0 0.00 0.00 0.00 74 1005.6
20200402092604 57 158 4.0 10.0 0.00 0.00 0.00 74 1005.5
20200402091104 58 196 4.0 11.0 0.00 0.00 0.00 73 1005.7
20200402090604 58 233 4.0 11.0 0.00 0.00 0.00 73 1005.6
20200402090103 58 192 4.0 9.0 0.00 0.00 0.00 72 1005.6
20200402085604 58 153 4.0 9.0 0.00 0.00 0.00 72 1005.6
20200402085103 58 163 4.0 9.0 0.00 0.00 0.00 72 1005.6
20200402084604 58 189 4.0 9.0 0.00 0.00 0.00 71 1005.5
20200402084104 58 132 4.0 10.0 0.00 0.00 0.00 71 1005.6
20200402083603 59 184 4.0 10.0 0.00 0.00 0.00 71 1005.6
20200402083104 59 174 4.0 9.0 0.00 0.00 0.00 71 1005.6
20200402082604 59 217 3.0 7.0 0.00 0.00 0.00 71 1005.6
20200402082103 59 173 3.0 9.0 0.00 0.00 0.00 70 1005.6
20200402081604 59 153 4.0 9.0 0.00 0.00 0.00 70 1005.6
20200402081104 59 163 3.0 9.0 0.00 0.00 0.00 70 1005.6
20200402080604 59 190 3.0 7.0 0.00 0.00 0.00 70 1005.7
20200402080104 59 197 4.0 8.0 0.00 0.00 0.00 69 1005.7
20200402075604 60 144 4.0 8.0 0.00 0.00 0.00 69 1005.7
20200402075103 60 196 4.0 10.0 0.00 0.00 0.00 69 1005.8
20200402074604 60 202 4.0 10.0 0.00 0.00 0.00 68 1005.8
20200402074103 60 155 5.0 10.0 0.00 0.00 0.00 68 1005.8
20200402073604 60 186 5.0 11.0 0.00 0.00 0.00 67 1005.9
20200402073104 60 205 5.0 11.0 0.00 0.00 0.00 67 1006.0
20200402072603 60 159 4.0 10.0 0.00 0.00 0.00 67 1006.0
20200402072104 61 194 5.0 10.0 0.00 0.00 0.00 67 1006.0
20200402071604 61 202 5.0 12.0 0.00 0.00 0.00 67 1005.9
20200402071104 61 185 5.0 12.0 0.00 0.00 0.00 66 1005.9
20200402070604 61 150 5.0 11.0 0.00 0.00 0.00 66 1005.9
20200402070104 61 160 4.0 11.0 0.00 0.00 0.00 66 1006.1
20200402065603 61 130 5.0 10.0 0.00 0.00 0.00 66 1006.1
20200402065104 61 196 5.0 12.0 0.00 0.00 0.00 66 1006.1
20200402064856 61 198 6.0 15.0 0.00 0.00 0.00 65 1006.0
20200402064103 61 190 6.0 15.0 0.00 0.00 0.00 65 1006.0
20200402063601 62 155 5.0 13.0 0.00 0.00 0.00 65 1006.2
20200402063102 62 184 5.0 12.0 0.00 0.00 0.00 64 1006.3
20200402062559 62 215 5.0 12.0 0.00 0.00 0.00 64 1006.3
20200402062059 62 196 5.0 10.0 0.00 0.00 0.00 64 1006.4
20200402061606 62 132 6.0 15.0 0.00 0.00 0.00 63 1006.4
20200402061100 62 211 6.0 15.0 0.00 0.00 0.00 63 1006.4
20200402060557 62 222 5.0 14.0 0.00 0.00 0.00 63 1006.4
20200402060056 62 149 5.0 14.0 0.00 0.00 0.00 63 1006.5
20200402055558 62 186 6.0 14.0 0.00 0.00 0.00 63 1006.5
20200402055105 62 186 5.0 14.0 0.00 0.00 0.00 62 1006.5
20200402054558 62 191 5.0 14.0 0.00 0.00 0.00 62 1006.5
20200402054056 63 194 6.0 16.0 0.00 0.00 0.00 62 1006.6
20200402053555 63 181 6.0 16.0 0.00 0.00 0.00 62 1006.5
20200402053055 63 200 6.0 14.0 0.00 0.00 0.00 62 1006.5
20200402052556 63 221 6.0 14.0 0.00 0.00 0.00 62 1006.5
20200402052056 63 190 5.0 13.0 0.00 0.00 0.00 62 1006.5
20200402051555 63 173 5.0 12.0 0.00 0.00 0.00 62 1006.5
20200402051053 63 229 5.0 13.0 0.00 0.00 0.00 62 1006.6
20200402050554 63 205 5.0 13.0 0.00 0.00 0.00 61 1006.6
20200402050053 63 219 4.0 13.0 0.00 0.00 0.00 62 1006.5
20200402045553 63 227 4.0 11.0 0.00 0.00 0.00 62 1006.5
20200402045053 63 246 4.0 10.0 0.00 0.00 0.00 62 1006.4
20200402044553 63 227 4.0 9.0 0.00 0.00 0.00 62 1006.4
20200402044052 63 169 4.0 9.0 0.00 0.00 0.00 62 1006.4
20200402043551 63 234 4.0 10.0 0.00 0.00 0.00 62 1006.5
20200402043051 63 209 4.0 11.0 0.00 0.00 0.00 61 1006.3
20200402042551 63 190 5.0 14.0 0.00 0.00 0.00 61 1006.3
20200402042051 63 194 4.0 14.0 0.00 0.00 0.00 61 1006.3
20200402041551 63 182 5.0 11.0 0.00 0.00 0.00 61 1006.3
20200402041051 63 205 5.0 11.0 0.00 0.00 0.00 61 1006.3
20200402040551 63 194 4.0 9.0 0.00 0.00 0.00 61 1006.4
20200402040051 63 221 4.0 10.0 0.00 0.00 0.00 60 1006.4
20200402035551 63 215 4.0 10.0 0.00 0.00 0.00 60 1006.2
20200402035049 64 191 4.0 10.0 0.00 0.00 0.00 60 1006.2
20200402034550 64 196 5.0 12.0 0.00 0.00 0.00 59 1006.1
20200402034049 64 192 5.0 14.0 0.00 0.00 0.00 59 1006.1
20200402033549 64 204 5.0 14.0 0.00 0.00 0.00 59 1006.0
20200402033049 64 201 5.0 12.0 0.00 0.00 0.00 58 1006.0
20200402032549 64 161 5.0 12.0 0.00 0.00 0.00 58 1005.9
20200402032049 64 184 5.0 12.0 0.00 0.00 0.00 58 1005.8
20200402031549 65 165 5.0 14.0 0.00 0.00 0.00 58 1005.7
20200402031049 65 169 5.0 14.0 0.00 0.00 0.00 57 1005.8
20200402030551 65 156 5.0 12.0 0.00 0.00 0.00 57 1005.8
20200402030047 65 201 5.0 13.0 0.00 0.00 0.00 57 1005.7
20200402025547 65 207 5.0 13.0 0.00 0.00 0.00 57 1005.6
20200402025048 64 179 4.0 10.0 0.00 0.00 0.00 57 1005.6
20200402024548 64 146 4.0 11.0 0.00 0.00 0.00 58 1005.6
20200402024047 64 212 4.0 11.0 0.00 0.00 0.00 58 1005.7
20200402023545 64 140 4.0 10.0 0.00 0.00 0.00 58 1005.7
20200402023045 64 191 4.0 10.0 0.00 0.00 0.00 58 1005.6
20200402022543 64 178 4.0 9.0 0.00 0.00 0.00 58 1005.6
20200402022043 64 190 4.0 9.0 0.00 0.00 0.00 58 1005.6
20200402021542 64 107 4.0 10.0 0.00 0.00 0.00 59 1005.6
20200402021043 64 194 4.0 10.0 0.00 0.00 0.00 59 1005.5
20200402020543 64 191 4.0 10.0 0.00 0.00 0.00 59 1005.4
20200402020043 64 222 4.0 9.0 0.00 0.00 0.00 59 1005.3
20200402015543 64 192 4.0 9.0 0.00 0.00 0.00 59 1005.2
20200402015043 64 146 4.0 9.0 0.00 0.00 0.00 59 1005.2
20200402014542 64 158 4.0 10.0 0.00 0.00 0.00 59 1005.2
20200402014041 64 125 4.0 10.0 0.00 0.00 0.00 59 1005.1
20200402013041 64 132 4.0 10.0 0.00 0.00 0.00 59 1005.1
20200402012541 64 192 4.0 10.0 0.00 0.00 0.00 58 1005.2
20200402012042 65 144 4.0 9.0 0.00 0.00 0.00 58 1005.2
20200402011541 65 150 4.0 9.0 0.00 0.00 0.00 57 1005.1
20200402011041 65 142 4.0 9.0 0.00 0.00 0.00 57 1005.2
20200402010541 65 153 4.0 9.0 0.00 0.00 0.00 56 1005.1
20200402010041 65 146 4.0 10.0 0.00 0.00 0.00 56 1005.2
20200402005542 65 152 4.0 10.0 0.00 0.00 0.00 56 1005.2
20200402005040 65 148 3.0 8.0 0.00 0.00 0.00 56 1005.1
20200402004539 65 184 3.0 7.0 0.00 0.00 0.00 56 1005.2
20200402004037 66 141 3.0 7.0 0.00 0.00 0.00 55 1005.2
20200402003537 66 142 4.0 8.0 0.00 0.00 0.00 54 1005.1
20200402003037 66 165 4.0 8.0 0.00 0.00 0.00 53 1005.1
20200402002537 66 207 4.0 8.0 0.00 0.00 0.00 53 1005.1
20200402002035 67 191 4.0 11.0 0.00 0.00 0.00 53 1005.1
20200402001535 67 159 4.0 11.0 0.00 0.00 0.00 52 1005.2
20200402001032 67 187 5.0 10.0 0.00 0.00 0.00 52 1005.3
20200402000531 67 188 5.0 11.0 0.00 0.00 0.00 50 1005.2
20200402000237 67 191 5.0 11.0 0.00 0.00 0.00 50 1005.4
20200401235531 68 143 5.0 11.0 0.00 0.00 0.00 50 1005.3
20200401235031 68 135 5.0 11.0 0.00 0.00 0.00 49 1005.4
20200401234531 68 183 6.0 13.0 0.00 0.00 0.00 49 1005.4
20200401234036 68 173 6.0 13.0 0.00 0.00 0.00 48 1005.4
20200401233529 68 196 6.0 17.0 0.00 0.00 0.00 49 1005.3
20200401233032 68 201 6.0 17.0 0.00 0.00 0.00 48 1005.2
20200401232527 68 215 7.0 18.0 0.00 0.00 0.00 48 1005.1
20200401232025 68 185 7.0 18.0 0.00 0.00 0.00 47 1005.1
20200401231525 68 182 7.0 14.0 0.00 0.00 0.00 47 1005.2
20200401231025 68 147 7.0 15.0 0.00 0.00 0.00 47 1005.2
20200401230525 68 186 8.0 15.0 0.00 0.00 0.00 47 1005.1
20200401225524 68 192 7.0 16.0 0.00 0.00 0.00 47 1005.1
20200401225025 68 205 7.0 16.0 0.00 0.00 0.00 47 1005.1
20200401224525 69 204 8.0 16.0 0.00 0.00 0.00 46 1005.2
20200401224025 69 148 7.0 17.0 0.00 0.00 0.00 45 1005.1
20200401223524 69 217 8.0 17.0 0.00 0.00 0.00 45 1005.2
20200401223025 69 209 8.0 17.0 0.00 0.00 0.00 45 1005.2
20200401222525 69 180 8.0 17.0 0.00 0.00 0.00 45 1005.1
20200401222025 69 207 8.0 15.0 0.00 0.00 0.00 45 1005.2
20200401221525 70 196 8.0 17.0 0.00 0.00 0.00 44 1005.1
20200401221025 70 168 8.0 22.0 0.00 0.00 0.00 43 1005.1
20200401220525 70 165 8.0 22.0 0.00 0.00 0.00 43 1005.1
20200401220024 70 182 8.0 18.0 0.00 0.00 0.00 44 1005.2
20200401215524 70 175 7.0 14.0 0.00 0.00 0.00 45 1005.3
20200401215025 70 250 8.0 17.0 0.00 0.00 0.00 45 1005.4
20200401214525 70 140 8.0 17.0 0.00 0.00 0.00 44 1005.4
20200401214025 70 210 9.0 18.0 0.00 0.00 0.00 44 1005.5
20200401213525 70 131 9.0 18.0 0.00 0.00 0.00 44 1005.6
20200401213025 70 179 9.0 18.0 0.00 0.00 0.00 43 1005.7
20200401212525 70 142 8.0 18.0 0.00 0.00 0.00 43 1005.6
20200401212025 71 190 7.0 14.0 0.00 0.00 0.00 43 1005.7
20200401211525 71 188 7.0 15.0 0.00 0.00 0.00 43 1005.8
20200401211024 71 170 7.0 15.0 0.00 0.00 0.00 44 1005.9
20200401210524 71 151 8.0 16.0 0.00 0.00 0.00 44 1006.0
20200401210025 71 109 7.0 16.0 0.00 0.00 0.00 43 1006.0
20200401205525 71 170 7.0 17.0 0.00 0.00 0.00 44 1006.2
20200401205025 70 145 7.0 17.0 0.00 0.00 0.00 44 1006.2
20200401204524 71 175 7.0 15.0 0.00 0.00 0.00 45 1006.3
20200401204024 70 120 7.0 15.0 0.00 0.00 0.00 45 1006.5
20200401203525 70 209 6.0 16.0 0.00 0.00 0.00 45 1006.5
20200401203025 70 190 5.0 16.0 0.00 0.00 0.00 44 1006.4
20200401202524 70 134 6.0 15.0 0.00 0.00 0.00 44 1006.7
20200401202024 70 162 7.0 15.0 0.00 0.00 0.00 44 1006.8
20200401201524 70 169 8.0 18.0 0.00 0.00 0.00 43 1006.7
20200401201024 70 226 8.0 19.0 0.00 0.00 0.00 42 1006.9
20200401200525 71 126 6.0 19.0 0.00 0.00 0.00 42 1007.2
20200401200036 71 146 6.0 16.0 0.00 0.00 0.00 44 1007.0
20200401195524 71 211 6.0 16.0 0.00 0.00 0.00 42 1007.2
20200401195024 71 139 6.0 14.0 0.00 0.00 0.00 42 1007.3
20200401194525 71 178 6.0 17.0 0.00 0.00 0.00 42 1007.6
20200401194023 71 205 7.0 17.0 0.00 0.00 0.00 42 1007.5
20200401193528 71 238 7.0 17.0 0.00 0.00 0.00 41 1007.6
20200401193024 71 207 8.0 21.0 0.00 0.00 0.00 42 1007.6
20200401192520 70 202 8.0 21.0 0.00 0.00 0.00 43 1007.7
20200401192021 70 203 7.0 16.0 0.00 0.00 0.00 43 1007.8
20200401191520 70 123 7.0 16.0 0.00 0.00 0.00 43 1008.0
20200401191019 71 142 7.0 16.0 0.00 0.00 0.00 42 1008.1
20200401190518 71 206 7.0 16.0 0.00 0.00 0.00 43 1008.3
20200401190016 70 200 7.0 15.0 0.00 0.00 0.00 44 1008.3
20200401185517 70 206 7.0 17.0 0.00 0.00 0.00 43 1008.4
20200401185017 70 179 8.0 17.0 0.00 0.00 0.00 43 1008.2
20200401184516 70 167 7.0 16.0 0.00 0.00 0.00 42 1008.3
20200401184015 71 225 7.0 16.0 0.00 0.00 0.00 42 1008.2
20200401183514 70 198 8.0 18.0 0.00 0.00 0.00 44 1008.4
20200401183011 70 186 8.0 18.0 0.00 0.00 0.00 42 1008.4
20200401182511 70 223 8.0 15.0 0.00 0.00 0.00 44 1008.5
20200401182011 70 177 9.0 15.0 0.00 0.00 0.00 43 1008.7
20200401181510 70 154 7.0 17.0 0.00 0.00 0.00 44 1008.8
20200401181010 70 202 6.0 17.0 0.00 0.00 0.00 43 1008.7
20200401180508 69 194 5.0 16.0 0.00 0.00 0.00 48 1008.7
20200401180008 69 200 5.0 16.0 0.00 0.00 0.00 50 1008.8
20200401175508 68 245 6.0 15.0 0.00 0.00 0.00 51 1008.9
20200401175008 67 177 7.0 16.0 0.00 0.00 0.00 52 1008.9
20200401174506 67 206 6.0 16.0 0.00 0.00 0.00 51 1009.0
20200401174004 67 207 6.0 15.0 0.00 0.00 0.00 51 1008.9
20200401173504 67 198 6.0 15.0 0.00 0.00 0.00 50 1009.1
20200401173005 67 213 5.0 14.0 0.00 0.00 0.00 50 1009.3
20200401172503 67 199 5.0 14.0 0.00 0.00 0.00 50 1009.5
20200401172001 67 191 7.0 14.0 0.00 0.00 0.00 49 1009.6
20200401171500 67 159 6.0 14.0 0.00 0.00 0.00 50 1009.7
20200401171000 67 220 6.0 14.0 0.00 0.00 0.00 52 1009.7
20200401170501 66 200 5.0 10.0 0.00 0.00 0.00 53 1009.7
20200401170001 65 167 6.0 18.0 0.00 0.00 0.00 56 1009.9
20200401165500 64 206 6.0 18.0 0.00 0.00 0.00 57 1010.0
20200401164958 64 254 6.0 12.0 0.00 0.00 0.00 57 1010.0
20200401164458 64 185 5.0 12.0 0.00 0.00 0.00 59 1010.1
20200401163958 63 168 5.0 12.0 0.00 0.00 0.00 58 1010.2
20200401163458 63 208 6.0 11.0 0.00 0.00 0.00 57 1010.3
20200401162959 63 196 4.0 11.0 0.00 0.00 0.00 59 1010.4
20200401162459 63 192 4.0 14.0 0.00 0.00 0.00 61 1010.3
20200401161958 62 209 5.0 14.0 0.00 0.00 0.00 61 1010.3
20200401161458 62 219 4.0 12.0 0.00 0.00 0.00 60 1010.3
20200401160957 62 231 4.0 10.0 0.00 0.00 0.00 60 1010.3
20200401160456 62 144 5.0 12.0 0.00 0.00 0.00 62 1010.3
20200401155957 61 207 5.0 12.0 0.00 0.00 0.00 63 1010.3
20200401155456 61 186 5.0 9.0 0.00 0.00 0.00 64 1010.3
20200401154956 61 175 5.0 11.0 0.00 0.00 0.00 66 1010.3
20200401154456 61 127 5.0 11.0 0.00 0.00 0.00 64 1010.4
20200401153957 60 181 4.0 10.0 0.00 0.00 0.00 66 1010.4
20200401153456 60 200 4.0 9.0 0.00 0.00 0.00 67 1010.3
20200401152956 60 169 4.0 12.0 0.00 0.00 0.00 67 1010.3
20200401152456 60 251 4.0 12.0 0.00 0.00 0.00 67 1010.2
20200401151955 60 217 4.0 8.0 0.00 0.00 0.00 67 1010.3
20200401151455 59 216 3.0 8.0 0.00 0.00 0.00 69 1010.4
20200401150955 59 240 3.0 8.0 0.00 0.00 0.00 69 1010.3
20200401150454 58 176 3.0 8.0 0.00 0.00 0.00 71 1010.2
20200401145955 58 185 3.0 7.0 0.00 0.00 0.00 73 1010.3
20200401145454 57 178 4.0 9.0 0.00 0.00 0.00 73 1010.2
20200401144955 57 217 3.0 9.0 0.00 0.00 0.00 74 1010.2
20200401144454 56 171 3.0 7.0 0.00 0.00 0.00 76 1010.1
20200401143954 56 194 3.0 7.0 0.00 0.00 0.00 77 1010.1
20200401143454 56 173 3.0 9.0 0.00 0.00 0.00 77 1010.1
20200401142954 55 145 3.0 9.0 0.00 0.00 0.00 78 1010.2
20200401142452 55 132 3.0 6.0 0.00 0.00 0.00 78 1010.3
20200401141953 55 172 2.0 6.0 0.00 0.00 0.00 79 1010.2
20200401141453 54 190 3.0 6.0 0.00 0.00 0.00 80 1010.1
20200401140953 54 186 3.0 6.0 0.00 0.00 0.00 81 1010.0
20200401140452 53 153 3.0 6.0 0.00 0.00 0.00 82 1010.1
20200401135952 53 186 3.0 6.0 0.00 0.00 0.00 82 1010.1
20200401135453 52 173 3.0 7.0 0.00 0.00 0.00 83 1010.1
20200401134952 52 178 3.0 7.0 0.00 0.00 0.00 83 1010.1
20200401134450 52 161 3.0 7.0 0.00 0.00 0.00 84 1010.1
20200401133950 51 180 2.0 6.0 0.00 0.00 0.00 85 1010.1
20200401133450 51 188 2.0 6.0 0.00 0.00 0.00 86 1010.0
20200401132950 51 169 2.0 6.0 0.00 0.00 0.00 86 1009.9
20200401132449 50 161 2.0 5.0 0.00 0.00 0.00 87 1009.9
20200401131950 50 135 2.0 4.0 0.00 0.00 0.00 87 1009.8
20200401131450 49 144 2.0 5.0 0.00 0.00 0.00 87 1009.7
20200401130951 49 143 2.0 5.0 0.00 0.00 0.00 88 1009.8
20200401130450 49 173 2.0 4.0 0.00 0.00 0.00 88 1009.7
20200401125950 49 196 2.0 8.0 0.00 0.00 0.00 89 1009.7
20200401125448 48 180 2.0 8.0 0.00 0.00 0.00 89 1009.7
20200401124948 48 182 2.0 4.0 0.00 0.00 0.00 90 1009.7
20200401124448 48 196 2.0 4.0 0.00 0.00 0.00 90 1009.7
20200401123948 48 155 2.0 4.0 0.00 0.00 0.00 91 1009.6
20200401123449 47 158 2.0 5.0 0.00 0.00 0.00 91 1009.6
20200401122946 47 158 2.0 5.0 0.00 0.00 0.00 92 1009.5
20200401122446 47 190 1.0 3.0 0.00 0.00 0.00 92 1009.5
20200401121946 46 194 1.0 3.0 0.00 0.00 0.00 93 1009.5
20200401121446 46 194 1.0 3.0 0.00 0.00 0.00 93 1009.6
20200401120945 46 194 1.0 3.0 0.00 0.00 0.00 93 1009.6
20200401120446 45 219 0.0 2.0 0.00 0.00 0.00 93 1009.6
20200401115946 45 219 1.0 2.0 0.00 0.00 0.00 93 1009.7
20200401115447 45 219 0.0 1.0 0.00 0.00 0.00 93 1009.6
20200401114946 45 219 0.0 1.0 0.00 0.00 0.00 93 1009.7
20200401114446 45 219 0.0 2.0 0.00 0.00 0.00 93 1009.7
20200401113946 44 219 0.0 2.0 0.00 0.00 0.00 92 1009.7
20200401113446 44 219 0.0 0.0 0.00 0.00 0.00 92 1009.7
20200401112946 44 219 0.0 0.0 0.00 0.00 0.00 92 1009.8
20200401112445 44 219 0.0 0.0 0.00 0.00 0.00 92 1009.8
20200401111946 45 219 0.0 0.0 0.00 0.00 0.00 92 1009.9
20200401111446 45 219 0.0 0.0 0.00 0.00 0.00 92 1009.8
20200401110946 45 219 0.0 0.0 0.00 0.00 0.00 92 1009.7
20200401110446 45 219 0.0 0.0 0.00 0.00 0.00 92 1009.7
20200401105946 45 219 0.0 0.0 0.00 0.00 0.00 92 1009.8